SCP
3 2 1 2 1 1 2 3 1 1 0 0 0 0 0 0 0 0 0 0 0 0
2 1 1 1 0 1 0 0 0 0 0 0 0 0 0 0 0 0 0 0 0 0
1 1 1 1 1 0 0 0 0 0 0 0 0 0 0 0 0 0 0 0 0 0
1 1 1 1 0 0 0 0 0 0 0 0 0 0 0 0 0 0 0 0 0 0
1 1 1 1 0 0 0 0 0 0 0 0 0 0 0 0 0 0 0 0 0 0
1 1 1 0 0 0 0 0 0 0 0 0 0 0 0 0 0 0 0 0 0 0
1 1 1 0 0 0 0 0 0 0 0 0 0 0 0 0 0 0 0 0 0 0
0 0 0 0 0 0 0 0 0 0 0 0 0 0 0 0 0 0 0 0 0 0
0 1 0 1 1 0 0 0 0 0 0 0 0 0 0 0 0 0 0 0 0 0
1 1 1 0 1 1 0 0 0 0 0 0 0 0 0 0 0 0 0 0 0 0
1 1 1 1 1 0 0 0 0 0 0 0 0 0 0 0 0 0 0 0 0 0
0 1 1 0 1 0 0 0 0 0 0 0 0 0 0 0 0 0 0 0 0 0
0 0 0 0 0 0 0 0 0 0 0 0 0 0 0 0 0 0 0 0 0 0
0 0 0 0 0 0 0 0 0 0 0 0 0 0 0 0 0 0 0 0 0 0
Wind_Speed_500mb
8 6 14 20 37 28 25 37 35 34 24 26 40 65 41 9 7 4 10 18 18 21
24 24 30 33 26 23 29 28 28 26 22 15 5 13 1 2 4 7 14 12 18 22
24 25 22 24 30 30 29 24 19 5 16 14 16 9 11 15 14 15 16 17 21 28
28 20 20 29 30 26 22 19 14 12 7 5 3 3 4 9 10 14 23 23 30 33
24 18 22 19 24 19 13 10 8 10 11 10 10 4 3 5 9 16 20 23 27 31
23 19 21 18 15 8 8 7 8 10 7 7 7 9 11 13 14 18 21 26 33 38
30 24 21 14 9 4 2 3 3 4 3 4 8 8 7 13 16 21 26 30 36 39
32 25 22 16 12 8 5 3 2 2 6 4 17 16 18 21 18 22 26 28 29 29
40 33 30 27 17 15 10 7 4 1 5 15 22 17 22 27 31 23 29 36 40 43
43 34 28 26 24 18 16 12 5 3 2 18 18 22 25 30 32 25 34 44 44 46
43 46 34 31 28 25 14 5 4 0 6 22 24 25 28 31 26 25 31 38 40 24
49 46 38 40 41 25 10 8 3 4 5 20 29 37 39 33 18 23 26 21 26 22
50 42 34 13 25 24 16 14 2 7 13 24 38 52 39 32 19 18 18 15 26 28
40 32 16 7 16 12 16 11 4 6 17 14 30 50 37 30 24 23 20 17 19 25
Wind_Direction_500mb
198 325 319 314 312 313 301 288 289 302 308 309 269 252 235 213 203 231 219 235 253 260
319 326 326 327 342 331 325 310 313 319 330 316 183 154 333 95 25 238 261 253 269 278
331 331 342 346 352 345 338 333 334 34 122 124 152 165 125 105 290 296 275 281 282 281
331 337 345 342 344 341 348 16 61 73 105 106 120 42 78 201 236 276 282 288 287 284
332 338 332 342 343 350 19 46 73 56 47 34 39 59 300 320 282 284 293 298 294 289
333 324 323 332 336 5 36 48 55 65 49 21 352 329 312 309 309 303 300 299 295 291
319 305 309 310 309 324 2 61 81 89 75 11 312 277 286 319 311 304 300 297 302 306
310 304 297 287 278 256 221 215 201 350 358 340 273 288 294 300 316 307 304 302 290 298
307 293 289 284 262 250 239 234 215 282 269 257 285 306 303 304 306 314 307 287 280 279
307 291 284 283 258 244 238 217 193 182 228 263 305 305 308 314 319 322 288 285 288 298
307 297 279 279 251 237 223 215 187 357 291 291 306 318 320 323 337 295 298 309 311 332
306 299 278 283 237 211 175 54 310 78 211 264 301 325 327 335 5 324 328 330 331 326
300 288 288 349 63 73 66 100 82 7 342 328 332 335 341 355 4 351 348 354 350 332
296 288 297 136 87 55 46 331 24 1 270 295 340 337 355 359 15 7 2 357 341 328
Wind_Speed_850mb
8 6 14 20 37 28 25 37 35 34 24 26 40 65 41 9 7 4 10 18 18 21
24 24 30 33 26 23 29 28 28 26 22 15 5 13 1 2 4 7 14 12 18 22
24 25 22 24 30 30 29 24 19 5 16 14 16 9 11 15 14 15 16 17 21 28
28 20 20 29 30 26 22 19 14 12 7 5 3 3 4 9 10 14 23 23 30 33
24 18 22 19 24 19 13 10 8 10 11 10 10 4 3 5 9 16 20 23 27 31
23 19 21 18 15 8 8 7 8 10 7 7 7 9 11 13 14 18 21 26 33 38
30 24 21 14 9 4 2 3 3 4 3 4 8 8 7 13 16 21 26 30 36 39
32 25 22 16 12 8 5 3 2 2 6 4 17 16 18 21 18 22 26 28 29 29
40 33 30 27 17 15 10 7 4 1 5 15 22 17 22 27 31 23 29 36 40 43
43 34 28 26 24 18 16 12 5 3 2 18 18 22 25 30 32 25 34 44 44 46
43 46 34 31 28 25 14 5 4 0 6 22 24 25 28 31 26 25 31 38 40 24
49 46 38 40 41 25 10 8 3 4 5 20 29 37 39 33 18 23 26 21 26 22
50 42 34 13 25 24 16 14 2 7 13 24 38 52 39 32 19 18 18 15 26 28
40 32 16 7 16 12 16 11 4 6 17 14 30 50 37 30 24 23 20 17 19 25
Wind_Direction_850mb
198 325 319 314 312 313 301 288 289 302 308 309 269 252 235 213 203 231 219 235 253 260
319 326 326 327 342 331 325 310 313 319 330 316 183 154 333 95 25 238 261 253 269 278
331 331 342 346 352 345 338 333 334 34 122 124 152 165 125 105 290 296 275 281 282 281
331 337 345 342 344 341 348 16 61 73 105 106 120 42 78 201 236 276 282 288 287 284
332 338 332 342 343 350 19 46 73 56 47 34 39 59 300 320 282 284 293 298 294 289
333 324 323 332 336 5 36 48 55 65 49 21 352 329 312 309 309 303 300 299 295 291
319 305 309 310 309 324 2 61 81 89 75 11 312 277 286 319 311 304 300 297 302 306
310 304 297 287 278 256 221 215 201 350 358 340 273 288 294 300 316 307 304 302 290 298
307 293 289 284 262 250 239 234 215 282 269 257 285 306 303 304 306 314 307 287 280 279
307 291 284 283 258 244 238 217 193 182 228 263 305 305 308 314 319 322 288 285 288 298
307 297 279 279 251 237 223 215 187 357 291 291 306 318 320 323 337 295 298 309 311 332
306 299 278 283 237 211 175 54 310 78 211 264 301 325 327 335 5 324 328 330 331 326
300 288 288 349 63 73 66 100 82 7 342 328 332 335 341 355 4 351 348 354 350 332
296 288 297 136 87 55 46 331 24 1 270 295 340 337 355 359 15 7 2 357 341 328